[[{"header":{"parameterUnit":"m.s-1","parameterCategory":1,"la1":30.2991,"la2":30.254,"lo1":-89.0895,"lo2":-89.0444,"dy":0.0017,"dx":0.0017,"nx":28,"ny":28,"refTime":"2023-10-23T09:00:00:Z","depth":0,"parameterNumber":2,"parameterNumberName":"U-component_of_WINDS"},"data":[0,0,0,0,0,0,0,0,0,0,0,0,0,0,0,0,0,0,0,0,0,0,0,0,0,0,0,0,0,0,0,0,0,0,0,0,0,0,0,0,0,0,0,0,0,0,0,0,0,0,0,0,0,0,0,0,0,0,-2.1149,-2.115,0,-2.1259,-2.126,-2.1262,-2.1259,-2.1257,-2.1256,-2.1254,-2.1375,-2.138,-2.1384,0,0,0,0,0,0,0,0,0,0,0,0,0,-2.0943,-2.0946,-2.1148,-2.115,-2.1151,-2.1259,-2.126,-2.1262,-2.1259,-2.1257,-2.1255,-2.1253,-2.1373,-2.1379,-2.1385,0,0,0,0,0,0,0,0,0,0,0,0,0,-2.1041,-2.0948,-2.1148,-2.1162,-2.1165,-2.1259,-2.1261,-2.1262,-2.1259,-2.1257,-2.1255,-2.1253,-2.1372,-2.1378,-2.1385,-2.1475,0,0,-2.1407,-2.141,0,0,0,0,0,0,0,0,-2.1035,-2.1048,-2.1159,-2.1162,-2.1164,-2.1243,-2.1232,-2.1334,-2.126,-2.1224,-2.1254,-2.1251,-2.1333,-2.1343,-2.1369,-2.148,-2.1485,-2.1407,-2.1411,-2.1414,-2.1416,0,0,0,0,0,0,0,-2.1028,-2.1044,-2.1192,-2.1161,-2.1164,-2.1166,-2.1177,-2.1251,-2.129,-2.1227,-2.1227,-2.1239,-2.1334,-2.1363,-2.1372,-2.1487,-2.1407,-2.1413,-2.1418,-2.142,-2.1679,-2.1682,0,0,0,0,0,0,-2.1017,-2.1038,-2.1189,-2.1196,-2.1093,-2.1172,-2.1184,-2.122,-2.1289,-2.1298,-2.1241,-2.1239,-2.1352,-2.1364,-2.1376,-2.1486,-2.1414,-2.1421,-2.1425,-2.1677,-2.168,-2.1683,0,0,0,0,0,0,-2.1013,-2.1031,-2.1184,-2.1117,-2.1136,-2.1177,-2.1218,-2.1223,-2.1251,-2.13,-2.1308,-2.1262,-2.1351,-2.1367,-2.145,-2.1491,-2.1424,-2.143,-2.1674,-2.1678,-2.1681,-2.1706,0,0,0,0,0,0,-2.1007,-2.1029,-2.1061,-2.1117,-2.114,-2.1254,-2.122,-2.1227,-2.1263,-2.126,-2.1322,-2.133,-2.135,-2.144,-2.1457,-2.1499,-2.1436,-2.167,-2.1675,-2.168,-2.1702,-2.1711,-2.1718,0,0,0,0,0,-2.1,-2.1065,-2.1063,-2.1081,-2.1181,-2.1256,-2.1269,-2.1288,-2.1266,-2.13,-2.1332,-2.1328,-2.1483,-2.1448,-2.1468,-2.1512,-2.1668,-2.1674,-2.168,-2.1699,-2.1709,-2.1718,0,0,0,0,0,0,-2.1015,-2.1073,-2.1071,-2.1156,-2.1201,-2.1255,-2.1298,-2.1299,-2.1352,-2.1349,-2.1372,-2.1387,-2.147,-2.15,-2.146,-2.1604,-2.1573,-2.1583,-2.1581,-2.1591,-2.1599,-2.159,-2.1442,0,0,0,0,0,-2.1028,-2.1082,-2.113,-2.1201,-2.1223,-2.1257,-2.1291,-2.1301,-2.135,-2.1369,-2.1407,-2.1457,-2.1517,-2.1556,-2.1614,-2.1707,-2.1722,-2.1748,-2.1755,-2.1762,-2.1771,-2.1824,-2.1837,-2.1703,-2.1703,-2.1703,0,0,-2.1056,-2.1094,-2.1127,-2.1205,-2.1241,-2.1299,-2.1273,-2.1335,-2.1379,-2.138,-2.146,-2.149,-2.1547,-2.1636,-2.1677,-2.1663,-2.1811,-2.177,-2.1774,-2.178,-2.1832,-2.1844,-2.1855,-2.1707,-2.1706,-2.1706,0,0,-2.1136,-2.117,-2.1233,-2.1269,-2.1323,-2.1346,-2.1361,-2.1416,-2.1435,-2.1515,-2.1518,-2.1572,-2.1674,-2.1715,-2.1749,-2.1847,-2.1847,-2.1866,-2.1907,-2.1959,-2.197,-2.1979,-2.2015,-2.2028,-2.1874,-2.1874,-2.1874,0,-2.1165,-2.1249,-2.1266,-2.1328,-2.1363,-2.1365,-2.143,-2.1466,-2.1537,-2.1563,-2.1546,-2.1675,-2.1713,-2.1813,-2.1837,-2.1864,-2.1884,-2.1858,-2.1966,-2.1976,-2.1985,-2.202,-2.2034,-2.1876,-2.1876,-2.1876,-2.1875,0,-2.1282,-2.1341,-2.1386,-2.1452,-2.1493,-2.1556,-2.1585,-2.1625,-2.1633,-2.1658,-2.1742,-2.1788,-2.1856,-2.1881,-2.189,-2.1983,-2.1972,-2.1961,-2.1931,-2.2,-2.2033,-2.2046,-2.1879,-2.1878,-2.1878,-2.1877,0,0,-2.1375,-2.1449,-2.1466,-2.1496,-2.1557,-2.1604,-2.1669,-2.1733,-2.1768,-2.1818,-2.1874,-2.1962,-2.1951,-2.199,-2.2005,-2.205,-2.2126,-2.2033,-2.2035,-2.205,-2.2233,-2.2242,-2.2256,-2.2127,-2.2129,-2.2131,-2.2229,0,-2.1462,-2.1573,-2.1591,-2.1691,-2.1747,-2.175,-2.1807,-2.1852,-2.1878,-2.1931,-2.1961,-2.2023,-2.2004,-2.2028,-2.2073,-2.2107,-2.2164,-2.2101,-2.2182,-2.2185,-2.2167,-2.2274,-2.2282,-2.2372,-2.2242,-2.2244,-2.2246,0,-2.1578,-2.1628,-2.1732,-2.1786,-2.1811,-2.1861,-2.1922,-2.1972,-2.2025,-2.2041,-2.2085,-2.2094,-2.2165,-2.2131,-2.2231,-2.2188,-2.2223,-2.2245,-2.2249,-2.2258,-2.2219,-2.2286,-2.2401,-2.2415,-2.2266,-2.2264,-2.2263,0,-2.1635,-2.173,-2.1805,-2.1831,-2.1896,-2.1931,-2.1961,-2.201,-2.2048,-2.2103,-2.2128,-2.2192,-2.2227,-2.2277,-2.2304,-2.2277,-2.2403,-2.2371,-2.242,-2.2419,-2.2446,-2.2444,-2.2569,-2.2468,-2.2468,-2.2467,-2.2467,0,-2.1731,-2.1795,-2.1831,-2.1878,-2.1951,-2.1972,-2.2045,-2.2074,-2.2118,-2.2173,-2.2181,-2.2232,-2.2265,-2.2322,-2.2344,-2.2424,-2.244,-2.2457,-2.2462,-2.2456,-2.2454,-2.248,-2.2474,-2.2471,-2.247,-2.247,-2.2469,0,-2.1807,-2.1834,-2.1916,-2.197,-2.1986,-2.2037,-2.2085,-2.2132,-2.2158,-2.2227,-2.2244,-2.2286,-2.2354,-2.2386,-2.2471,-2.2486,-2.2577,-2.2578,-2.2558,-2.2561,-2.2608,-2.2603,-2.2754,-2.2775,-2.2659,-2.266,-2.2661,0,-2.1866,-2.1915,-2.1974,-2.201,-2.2039,-2.2097,-2.2135,-2.2159,-2.22,-2.2264,-2.2304,-2.2371,-2.2426,-2.2535,-2.2575,-2.2641,-2.2644,-2.2692,-2.2654,-2.2647,-2.2646,-2.2642,-2.2649,-2.2699,-2.27,-2.2701,-2.2702,0,-2.1969,-2.198,-2.2033,-2.2092,-2.2136,-2.2185,-2.2232,-2.2262,-2.2294,-2.2339,-2.2407,-2.245,-2.2536,-2.2604,-2.2672,-2.2706,-2.2711,-2.2713,-2.2728,-2.2723,-2.271,-2.2719,-2.2578,-2.271,-2.2709,-2.2708,-2.2708,-2.2708,-2.2039,-2.2083,-2.2132,-2.2192,-2.2229,-2.2274,-2.232,-2.2352,-2.2408,-2.2477,-2.2489,-2.2562,-2.2616,-2.2708,-2.2744,-2.2804,-2.2793,-2.2815,-2.282,-2.2825,-2.2828,-2.27,-2.2817,-2.2817,-2.2817,-2.2816,-2.2816,0,-2.2143,-2.2174,-2.2229,-2.2294,-2.2341,-2.2339,-2.2392,-2.2433,-2.2496,-2.2544,-2.2598,-2.2677,-2.2744,-2.2789,-2.2857,-2.2897,-2.2901,-2.2914,-2.2912,-2.292,-2.2834,-2.2814,-2.2909,-2.2909,-2.2909,-2.2909,-2.2909,-2.2909,-2.2202,-2.2277,-2.2294,-2.2389,-2.2421,-2.249,-2.2521,-2.2563,-2.2602,-2.2689,-2.2743,-2.2771,-2.282,-2.2892,-2.2954,-2.2966,-2.2991,-2.3005,-2.3017,-2.2935,-2.2926,-2.2916,-2.2898,-2.301,-2.301,-2.3098,-2.3099,-2.3099]},{"header":{"parameterUnit":"m.s-1","parameterCategory":1,"la1":30.2991,"la2":30.254,"lo1":-89.0895,"lo2":-89.0444,"dy":0.0017,"dx":0.0017,"nx":28,"ny":28,"refTime":"2023-10-23T09:00:00:Z","depth":0,"parameterNumber":3,"parameterNumberName":"V-component_of_WINDS"},"data":[0,0,0,0,0,0,0,0,0,0,0,0,0,0,0,0,0,0,0,0,0,0,0,0,0,0,0,0,0,0,0,0,0,0,0,0,0,0,0,0,0,0,0,0,0,0,0,0,0,0,0,0,0,0,0,0,0,0,1.0901,1.09,0,1.0874,1.0874,1.0873,1.084,1.0839,1.0838,1.0838,1.0811,1.0811,1.081,0,0,0,0,0,0,0,0,0,0,0,0,0,1.0923,1.0923,1.0901,1.09,1.09,1.0874,1.0874,1.0873,1.084,1.0839,1.0838,1.0838,1.0811,1.0811,1.081,0,0,0,0,0,0,0,0,0,0,0,0,0,1.0907,1.0923,1.0901,1.088,1.0878,1.0874,1.0874,1.0873,1.084,1.0839,1.0838,1.0837,1.0811,1.0811,1.081,1.0825,0,0,1.0809,1.0809,0,0,0,0,0,0,0,0,1.0908,1.0906,1.0883,1.0881,1.0879,1.0859,1.0872,1.0857,1.084,1.0854,1.0838,1.0837,1.0828,1.0826,1.0823,1.0823,1.0822,1.0809,1.0809,1.0809,1.0809,0,0,0,0,0,0,0,1.0909,1.0907,1.089,1.0883,1.088,1.0872,1.0869,1.0869,1.0846,1.0853,1.085,1.0848,1.0826,1.0823,1.0822,1.0822,1.0809,1.0809,1.0809,1.0809,1.0834,1.0835,0,0,0,0,0,0,1.0913,1.0908,1.0891,1.0889,1.0892,1.0873,1.0869,1.0866,1.0846,1.0842,1.0848,1.0846,1.0824,1.0822,1.0821,1.0837,1.0809,1.0809,1.0808,1.0833,1.0834,1.0835,0,0,0,0,0,0,1.0914,1.0912,1.0892,1.0898,1.0895,1.0873,1.087,1.0866,1.0863,1.0842,1.0838,1.0849,1.0823,1.0821,1.0824,1.0835,1.0808,1.0808,1.0832,1.0834,1.0835,1.0869,0,0,0,0,0,0,1.0914,1.0912,1.0917,1.0898,1.0895,1.0896,1.0871,1.0866,1.0863,1.0859,1.0842,1.0838,1.0822,1.0825,1.0824,1.0834,1.0808,1.0831,1.0833,1.0834,1.0867,1.0871,1.0875,0,0,0,0,0,1.0915,1.0927,1.0917,1.0916,1.09,1.0896,1.0894,1.0876,1.0864,1.0869,1.0856,1.0839,1.0834,1.0825,1.0824,1.0835,1.083,1.0832,1.0834,1.0865,1.087,1.0875,0,0,0,0,0,0,1.0948,1.0924,1.0913,1.092,1.091,1.0891,1.0896,1.0882,1.0876,1.0873,1.085,1.0847,1.0853,1.0844,1.0834,1.0848,1.083,1.0832,1.0854,1.0859,1.0863,1.0865,1.0808,0,0,0,0,0,1.0956,1.0954,1.0934,1.0942,1.0938,1.0918,1.0916,1.0902,1.0892,1.0887,1.0874,1.0865,1.0861,1.0859,1.0855,1.0865,1.0862,1.0872,1.0876,1.088,1.0882,1.0888,1.0893,1.0842,1.0842,1.0842,0,0,1.0972,1.0959,1.096,1.0948,1.0939,1.0939,1.0915,1.0915,1.0915,1.0887,1.089,1.088,1.0868,1.0875,1.0877,1.0868,1.0895,1.0882,1.0885,1.0885,1.089,1.0895,1.0899,1.0843,1.0843,1.0843,0,0,1.1002,1.0991,1.0997,1.0989,1.0976,1.0963,1.0965,1.0948,1.094,1.0942,1.0922,1.0922,1.0916,1.0908,1.0904,1.0932,1.0917,1.0931,1.0953,1.096,1.0964,1.0967,1.0978,1.0982,1.0933,1.0933,1.0933,0,1.1023,1.1022,1.1002,1.1004,1.1,1.0976,1.0982,1.0975,1.0961,1.0959,1.0949,1.0942,1.0932,1.0937,1.0944,1.0941,1.0943,1.0933,1.0965,1.0968,1.0971,1.0981,1.0985,1.0935,1.0935,1.0935,1.0935,0,1.105,1.1049,1.1055,1.1044,1.104,1.1044,1.1025,1.1024,1.1012,1.1,1.1003,1.099,1.0984,1.0984,1.0971,1.0988,1.0983,1.0969,1.095,1.0978,1.0987,1.0991,1.0938,1.0937,1.0937,1.0936,0,0,1.1099,1.1076,1.1079,1.1074,1.1059,1.1058,1.1061,1.1055,1.1055,1.1047,1.1049,1.1046,1.1033,1.1028,1.1014,1.102,1.1044,1.1005,1.1004,1.1014,1.1064,1.1075,1.108,1.1034,1.1035,1.1035,1.1065,0,1.1126,1.113,1.1113,1.1122,1.1122,1.11,1.1103,1.1094,1.1083,1.1082,1.107,1.1068,1.1051,1.1048,1.1053,1.104,1.1054,1.1038,1.1037,1.1038,1.1042,1.1084,1.1096,1.1124,1.1068,1.1069,1.1069,0,1.1158,1.1152,1.1161,1.1147,1.1146,1.1149,1.1142,1.1141,1.1131,1.1123,1.1118,1.1103,1.1106,1.1088,1.1092,1.1082,1.108,1.1075,1.1075,1.1075,1.1056,1.1086,1.1133,1.1137,1.1075,1.1074,1.1074,0,1.1194,1.1188,1.1193,1.1189,1.1172,1.1175,1.1168,1.1157,1.1155,1.1149,1.1148,1.1142,1.114,1.1136,1.112,1.1108,1.1127,1.1107,1.1121,1.1122,1.1126,1.1126,1.1174,1.1124,1.1124,1.1124,1.1124,0,1.1226,1.1233,1.1209,1.1212,1.122,1.12,1.1208,1.1199,1.119,1.1191,1.1171,1.1173,1.1151,1.1151,1.1139,1.1145,1.1143,1.1138,1.1134,1.114,1.1141,1.1139,1.1137,1.1125,1.1125,1.1125,1.1125,0,1.1268,1.1252,1.1256,1.124,1.1236,1.1242,1.1228,1.1231,1.122,1.1222,1.1221,1.1203,1.1202,1.1186,1.1181,1.1172,1.1184,1.1176,1.1187,1.1185,1.12,1.12,1.125,1.1256,1.1201,1.1202,1.1202,0,1.129,1.1294,1.1279,1.1279,1.1273,1.1272,1.127,1.1251,1.125,1.124,1.1244,1.1241,1.1238,1.1237,1.1224,1.1221,1.1214,1.1231,1.1213,1.1219,1.1215,1.1215,1.1216,1.1235,1.1236,1.1237,1.1237,0,1.1331,1.1323,1.1321,1.1316,1.1314,1.1309,1.1303,1.1304,1.1284,1.1283,1.1282,1.128,1.1275,1.1273,1.1268,1.1261,1.1246,1.1243,1.1246,1.1252,1.1259,1.1257,1.1199,1.1242,1.1242,1.1241,1.1241,1.1241,1.1364,1.1367,1.1357,1.1356,1.135,1.1345,1.1347,1.1336,1.1335,1.133,1.1319,1.132,1.1311,1.1302,1.1296,1.1297,1.1288,1.1292,1.1294,1.1295,1.1299,1.1258,1.1296,1.1296,1.1296,1.1295,1.1295,0,1.1405,1.1397,1.1396,1.1389,1.1388,1.1374,1.1367,1.1367,1.1368,1.1361,1.1359,1.1358,1.1356,1.1344,1.1341,1.1344,1.1337,1.1344,1.1344,1.1343,1.1306,1.1304,1.1349,1.1349,1.1349,1.1349,1.1349,1.1349,1.1426,1.1432,1.1423,1.1426,1.1419,1.142,1.1417,1.1413,1.1408,1.1408,1.1406,1.1398,1.1389,1.1385,1.1383,1.138,1.138,1.1389,1.1383,1.135,1.1345,1.134,1.1338,1.1389,1.1389,1.142,1.142,1.142]}]]